Showing default

COSMOS 2385, 27056

Orbit data source: Space-Track

COSMOS 2385, 27056 is a payload satellite owned by KVR (CIS) in LEO that was launched on Fri, 28 Dec 2001 UTC via a TSIKLON-3 launch vehicle from the Plesetsk Missile And Space Complex (PKMTR). Payload-class satellites include a variety of spacecraft equipped with specific instruments for various scientific and technological missions. These include communications satellites like Starlink; space stations such as the ISS; scientific satellites like the Hubble; Earth observation satellites from companies like Planet Labs, Umbra, and HawkEye 360; GPS; miniature CubeSats for education and research; and military/defense satellites.

Loading next visibility...
Identifier
27056, 2001-058B
Orbit
LEO
Country
Flag of CISCIS
Related business
Manufacturer
NPO PM
Mission
Operational Defense Communications
Bus & Motor
STRELA-3, Unknown motor
Mass
225 kg wet, 225 kg dry
Launch date (UTC)
2001-12-28 (24 years ago)
Launch vehicle
TSIKLON-3
Launch site
Plesetsk Missile And Space Complex (PKMTR)
Object type
Payload
Rocket body
Debris
Shape & HBR
Cyl + 1 Arm, 3.5 m
Radar Cross Section
1.257 m², Medium (>0.1 m² and < 1m²)

Expand to show TLE details & history
Last TLE update: 11 hours ago

TLE from 11 hours ago
0 COSMOS 2385
1 27056U 01058B   25342.73371916  .00000011  00000-0  53996-5 0  9996
2 27056  82.5373 341.6630 0005261 312.2417 136.3232 12.60560174101786
Epoch: 2025-12-08T17:36Z
TLE epoch observation values (Epoch: 2025-12-08T17:36:33.335Z)
Latitude
82.44569°
Longitude
79.17492°
Altitude
1,437.156 km
Speed
7.148 km/s
True Right ascension
04h 04m 10s
True Declination
82° 24' 17"
Sunlit
Object was in daylight at epoch
Visualization orbit readout
Latitude
Unknown
Longitude
Unknown
Altitude
Unknown
Speed
Unknown
Apparent Right ascension
Unknown
Apparent Declination
Unknown
Sunlit
N/A
Visualization observer readout
Local Sidereal Time
03:17:37
Azimuth
Unknown
Elevation
Unknown
Doppler factor
Unknown
Orbital elements
Apogee altitude
1,422.059 km
Perigee altitude
1,413.856 km
Semi-major axis
7,796.095 km
Eccentricity
0.00053
Inclination
82.5373°
RAAN
341.663°
Arg. of periapsis
312.2417°
True anomaly
136.36481°
Mean anomaly
136.3232°
Eccentric anomaly
136.34401°
Mean motion
3.15303 °/min
Orbital period
114.18 mins
BSTAR
0.0000053996
Loading maneuver chart data...
Computing Atmospheric mass density...
Loading historical data...
Loading historical data...
Loading historical data...
Loading historical data...
Loading historical data...
Loading historical data...
Loading historical data...

Documentation

Showing up to 5 results
|